Time,TemperatureF,DewpointF,PressureIn,WindDirection,WindDirectionDegrees,WindSpeedMPH,WindSpeedGustMPH,Humidity,HourlyPrecipIn,Conditions,Clouds,dailyrainin,SoftwareType,DateUTC
2013-03-07 00:00:00,55.2,38.4,29.74,WNW,292,10.3,10.3,53,0.00,,---,0.00,VWS V13.01,2013-03-07 05:00:00,
2013-03-07 00:05:00,55.2,38.4,29.74,NW,315,1.6,10.3,53,0.00,,---,0.00,VWS V13.01,2013-03-07 05:05:00,
2013-03-07 00:10:00,55.2,38.4,29.74,NW,315,0.2,4.5,53,0.00,,---,0.00,VWS V13.01,2013-03-07 05:10:00,
2013-03-07 00:15:00,55.0,38.7,29.74,North,0,2.5,3.4,54,0.00,,---,0.00,VWS V13.01,2013-03-07 05:15:00,
2013-03-07 00:20:00,54.9,38.5,29.74,NW,315,2.5,2.5,54,0.00,,---,0.00,VWS V13.01,2013-03-07 05:20:00,
2013-03-07 00:30:00,54.9,38.5,29.74,NNW,338,1.6,3.4,54,0.00,,---,0.00,VWS V13.01,2013-03-07 05:30:00,
2013-03-07 00:35:00,54.7,38.4,29.74,North,0,4.3,4.3,54,0.00,,---,0.00,VWS V13.01,2013-03-07 05:35:00,
2013-03-07 00:45:00,54.5,38.2,29.73,NNW,338,3.1,4.7,54,0.00,,---,0.00,VWS V13.01,2013-03-07 05:45:00,
2013-03-07 00:55:00,54.3,38.0,29.74,North,0,5.8,5.8,54,0.00,,---,0.00,VWS V13.01,2013-03-07 05:55:00,
2013-03-07 01:05:00,54.3,38.0,29.74,NNW,338,5.1,5.1,54,0.00,,---,0.00,VWS V13.01,2013-03-07 06:05:00,
2013-03-07 01:15:00,54.1,37.9,29.73,West,270,5.6,6.0,54,0.00,,---,0.00,VWS V13.01,2013-03-07 06:15:00,
2013-03-07 01:25:00,54.1,37.9,29.73,NW,315,0.0,5.6,54,0.00,,---,0.00,VWS V13.01,2013-03-07 06:25:00,
2013-03-07 01:35:00,53.8,37.5,29.73,NW,315,1.1,5.6,54,0.00,,---,0.00,VWS V13.01,2013-03-07 06:35:00,
2013-03-07 01:45:00,53.8,37.5,29.73,NNW,338,6.3,6.3,54,0.00,,---,0.00,VWS V13.01,2013-03-07 06:45:00,
2013-03-07 01:55:00,53.4,37.2,29.73,NW,315,0.0,4.3,54,0.00,,---,0.00,VWS V13.01,2013-03-07 06:55:00,
2013-03-07 02:00:00,53.4,37.2,29.73,North,0,1.3,1.3,54,0.00,,---,0.00,VWS V13.01,2013-03-07 07:00:00,
2013-03-07 02:10:00,53.4,37.2,29.73,NNW,338,4.0,4.0,54,0.00,,---,0.00,VWS V13.01,2013-03-07 07:10:00,
2013-03-07 02:20:00,53.2,36.6,29.72,North,0,4.9,4.9,53,0.00,,---,0.00,VWS V13.01,2013-03-07 07:20:00,
2013-03-07 02:30:00,52.9,36.2,29.73,NW,315,7.4,17.0,53,0.00,,---,0.00,VWS V13.01,2013-03-07 07:30:00,
2013-03-07 02:35:00,52.9,36.2,29.72,NW,315,3.4,7.4,53,0.00,,---,0.00,VWS V13.01,2013-03-07 07:35:00,
2013-03-07 02:45:00,52.5,35.9,29.73,NE,45,1.1,3.4,53,0.00,,---,0.00,VWS V13.01,2013-03-07 07:45:00,
2013-03-07 02:55:00,52.5,35.9,29.72,North,0,0.9,2.7,53,0.00,,---,0.00,VWS V13.01,2013-03-07 07:55:00,
2013-03-07 03:00:00,52.3,35.7,29.72,NNW,338,6.3,6.3,53,0.00,,---,0.00,VWS V13.01,2013-03-07 08:00:00,
2013-03-07 03:10:00,52.3,35.7,29.73,NNW,338,3.6,5.1,53,0.00,,---,0.00,VWS V13.01,2013-03-07 08:10:00,
2013-03-07 03:15:00,52.0,35.4,29.72,NNW,338,4.9,4.9,53,0.00,,---,0.00,VWS V13.01,2013-03-07 08:15:00,
2013-03-07 03:25:00,51.6,35.1,29.72,North,0,3.8,4.7,53,0.00,,---,0.00,VWS V13.01,2013-03-07 08:25:00,
2013-03-07 03:30:00,51.6,35.1,29.72,North,0,3.8,3.8,53,0.00,,---,0.00,VWS V13.01,2013-03-07 08:30:00,
2013-03-07 03:35:00,51.6,35.1,29.72,NNW,338,1.8,3.8,53,0.00,,---,0.00,VWS V13.01,2013-03-07 08:35:00,
2013-03-07 03:45:00,51.4,34.9,29.72,NNW,338,3.8,5.6,53,0.00,,---,0.00,VWS V13.01,2013-03-07 08:45:00,
2013-03-07 03:50:00,51.4,34.9,29.72,NNW,338,6.0,6.0,53,0.00,,---,0.00,VWS V13.01,2013-03-07 08:50:00,
2013-03-07 03:55:00,51.1,34.6,29.72,North,0,6.5,6.5,53,0.00,,---,0.00,VWS V13.01,2013-03-07 08:55:00,
2013-03-07 04:05:00,51.1,34.6,29.72,NNW,338,9.8,9.8,53,0.00,,---,0.00,VWS V13.01,2013-03-07 09:05:00,
2013-03-07 04:10:00,50.9,34.4,29.72,NNW,338,9.0,9.8,53,0.00,,---,0.00,VWS V13.01,2013-03-07 09:10:00,
2013-03-07 04:20:00,50.7,34.2,29.73,NNW,338,0.0,9.0,53,0.00,,---,0.00,VWS V13.01,2013-03-07 09:20:00,
2013-03-07 04:30:00,50.9,34.4,29.73,North,0,2.9,3.4,53,0.00,,---,0.00,VWS V13.01,2013-03-07 09:30:00,
2013-03-07 04:40:00,50.7,33.8,29.73,NNW,338,2.7,8.5,52,0.00,,---,0.00,VWS V13.01,2013-03-07 09:40:00,
2013-03-07 04:45:00,50.4,33.9,29.73,NE,45,0.0,10.1,53,0.00,,---,0.00,VWS V13.01,2013-03-07 09:45:00,
2013-03-07 04:55:00,50.2,33.7,29.73,NNW,338,9.6,9.6,53,0.00,,---,0.00,VWS V13.01,2013-03-07 09:55:00,
2013-03-07 05:00:00,50.2,33.7,29.73,NNW,338,9.6,9.6,53,0.00,,---,0.00,VWS V13.01,2013-03-07 10:00:00,
2013-03-07 05:15:00,50.5,34.5,29.73,WNW,292,2.5,2.5,54,0.00,,---,0.00,VWS V13.01,2013-03-07 10:15:00,
2013-03-07 05:25:00,50.7,35.2,29.73,WNW,292,0.0,3.1,55,0.00,,---,0.00,VWS V13.01,2013-03-07 10:25:00,
2013-03-07 05:35:00,50.7,34.7,29.74,North,0,4.7,5.1,54,0.00,,---,0.00,VWS V13.01,2013-03-07 10:35:00,
2013-03-07 05:45:00,50.5,34.5,29.74,NNW,338,7.4,18.6,54,0.00,,---,0.00,VWS V13.01,2013-03-07 10:45:00,
2013-03-07 05:50:00,50.4,34.4,29.75,West,270,0.0,7.4,54,0.00,,---,0.00,VWS V13.01,2013-03-07 10:50:00,
2013-03-07 06:00:00,50.2,34.7,29.75,NNW,338,1.6,2.5,55,0.00,,---,0.00,VWS V13.01,2013-03-07 11:00:00,
2013-03-07 06:10:00,50.2,34.7,29.75,North,0,3.8,3.8,55,0.00,,---,0.00,VWS V13.01,2013-03-07 11:10:00,
2013-03-07 06:20:00,49.8,34.3,29.75,NNW,338,0.0,7.2,55,0.00,,---,0.00,VWS V13.01,2013-03-07 11:20:00,
2013-03-07 06:25:00,49.6,34.6,29.76,NW,315,11.2,11.2,56,0.00,,---,0.00,VWS V13.01,2013-03-07 11:25:00,
2013-03-07 06:35:00,49.6,34.6,29.76,North,0,0.4,0.4,56,0.00,,---,0.00,VWS V13.01,2013-03-07 11:35:00,
2013-03-07 06:40:00,49.8,34.8,29.77,NNW,338,4.9,4.9,56,0.00,,---,0.00,VWS V13.01,2013-03-07 11:40:00,
2013-03-07 06:50:00,49.8,34.8,29.78,NW,315,1.6,1.6,56,0.00,,---,0.00,VWS V13.01,2013-03-07 11:50:00,
2013-03-07 07:00:00,49.8,35.2,29.78,NNW,338,0.0,9.0,57,0.00,,---,0.00,VWS V13.01,2013-03-07 12:00:00,
2013-03-07 07:10:00,50.2,35.1,29.78,NNW,338,2.2,4.9,56,0.00,,---,0.00,VWS V13.01,2013-03-07 12:10:00,
2013-03-07 07:20:00,50.4,35.3,29.78,NW,315,1.1,1.1,56,0.00,,---,0.00,VWS V13.01,2013-03-07 12:20:00,
2013-03-07 07:30:00,50.9,35.8,29.78,West,270,8.3,8.3,56,0.00,,---,0.00,VWS V13.01,2013-03-07 12:30:00,
2013-03-07 07:35:00,51.3,35.7,29.79,NNW,338,7.8,8.3,55,0.00,,---,0.00,VWS V13.01,2013-03-07 12:35:00,
2013-03-07 07:45:00,51.6,36.0,29.80,NW,315,6.5,17.0,55,0.00,,---,0.00,VWS V13.01,2013-03-07 12:45:00,
2013-03-07 07:55:00,52.2,36.5,29.80,NNW,338,2.7,3.4,55,0.00,,---,0.00,VWS V13.01,2013-03-07 12:55:00,
2013-03-07 08:00:00,52.3,36.7,29.80,NW,315,6.7,6.7,55,0.00,,---,0.00,VWS V13.01,2013-03-07 13:00:00,
2013-03-07 08:10:00,52.9,37.2,29.80,NNW,338,6.7,6.7,55,0.00,,---,0.00,VWS V13.01,2013-03-07 13:10:00,
2013-03-07 08:20:00,53.8,37.5,29.80,NW,315,1.3,6.7,54,0.00,,---,0.00,VWS V13.01,2013-03-07 13:20:00,
2013-03-07 08:30:00,54.5,38.2,29.80,North,0,6.9,6.9,54,0.00,,---,0.00,VWS V13.01,2013-03-07 13:30:00,
2013-03-07 08:40:00,55.2,38.9,29.80,NNW,338,0.4,4.5,54,0.00,,---,0.00,VWS V13.01,2013-03-07 13:40:00,
2013-03-07 08:50:00,56.3,39.9,29.81,NNW,338,2.2,8.5,54,0.00,,---,0.00,VWS V13.01,2013-03-07 13:50:00,
2013-03-07 08:55:00,57.0,40.6,29.81,NE,45,16.8,16.8,54,0.00,,---,0.00,VWS V13.01,2013-03-07 13:55:00,
2013-03-07 09:00:00,57.0,40.6,29.81,NW,315,19.0,19.0,54,0.00,,---,0.00,VWS V13.01,2013-03-07 14:00:00,
2013-03-07 09:10:00,57.9,41.4,29.81,NNW,338,4.0,10.7,54,0.00,,---,0.00,VWS V13.01,2013-03-07 14:10:00,
2013-03-07 09:20:00,58.8,42.2,29.81,NNW,338,2.9,4.9,54,0.00,,---,0.00,VWS V13.01,2013-03-07 14:20:00,
2013-03-07 09:25:00,58.8,41.7,29.82,WNW,292,22.6,22.6,53,0.00,,---,0.00,VWS V13.01,2013-03-07 14:25:00,
2013-03-07 09:35:00,59.5,42.4,29.82,NNW,338,0.0,7.4,53,0.00,,---,0.00,VWS V13.01,2013-03-07 14:35:00,
2013-03-07 09:40:00,59.9,43.2,29.82,NW,315,2.2,3.4,54,0.00,,---,0.00,VWS V13.01,2013-03-07 14:40:00,
2013-03-07 09:50:00,61.2,43.9,29.82,North,0,2.5,2.5,53,0.00,,---,0.00,VWS V13.01,2013-03-07 14:50:00,
2013-03-07 10:00:00,62.2,44.9,29.82,NNW,338,1.3,4.3,53,0.00,,---,0.00,VWS V13.01,2013-03-07 15:00:00,
2013-03-07 10:05:00,62.4,45.1,29.82,WNW,292,4.3,4.3,53,0.00,,---,0.00,VWS V13.01,2013-03-07 15:05:00,
2013-03-07 10:10:00,62.4,44.6,29.82,North,0,0.0,4.3,52,0.00,,---,0.00,VWS V13.01,2013-03-07 15:10:00,
2013-03-07 10:20:00,63.3,45.4,29.83,WNW,292,1.6,2.0,52,0.00,,---,0.00,VWS V13.01,2013-03-07 15:20:00,
2013-03-07 10:25:00,63.3,45.4,29.83,WNW,292,1.6,1.6,52,0.00,,---,0.00,VWS V13.01,2013-03-07 15:25:00,
2013-03-07 10:35:00,64.2,46.2,29.83,North,0,0.0,4.5,52,0.00,,---,0.00,VWS V13.01,2013-03-07 15:35:00,
2013-03-07 10:45:00,65.1,46.6,29.82,NE,45,0.0,2.0,51,0.00,,---,0.00,VWS V13.01,2013-03-07 15:45:00,
2013-03-07 10:50:00,66.0,47.4,29.82,NW,315,0.4,0.4,51,0.00,,---,0.00,VWS V13.01,2013-03-07 15:50:00,
2013-03-07 11:00:00,66.4,46.7,29.82,NNE,22,0.4,3.1,49,0.00,,---,0.00,VWS V13.01,2013-03-07 16:00:00,
2013-03-07 11:10:00,66.9,47.2,29.82,North,0,4.7,4.7,49,0.00,,---,0.00,VWS V13.01,2013-03-07 16:10:00,
2013-03-07 11:20:00,67.1,46.2,29.82,NE,45,0.0,6.3,47,0.00,,---,0.00,VWS V13.01,2013-03-07 16:20:00,
2013-03-07 11:25:00,67.1,46.2,29.82,NE,45,0.0,0.0,47,0.00,,---,0.00,VWS V13.01,2013-03-07 16:25:00,
2013-03-07 11:35:00,68.7,46.5,29.82,NW,315,1.3,8.3,45,0.00,,---,0.00,VWS V13.01,2013-03-07 16:35:00,
2013-03-07 11:45:00,69.1,46.3,29.82,NE,45,1.8,1.8,44,0.00,,---,0.00,VWS V13.01,2013-03-07 16:45:00,
2013-03-07 11:50:00,69.1,46.3,29.82,North,0,0.0,1.8,44,0.00,,---,0.00,VWS V13.01,2013-03-07 16:50:00,
2013-03-07 12:00:00,69.4,46.6,29.82,ESE,112,3.1,3.1,44,0.00,,---,0.00,VWS V13.01,2013-03-07 17:00:00,
2013-03-07 12:10:00,70.0,47.1,29.81,ENE,68,4.9,4.9,44,0.00,,---,0.00,VWS V13.01,2013-03-07 17:10:00,
2013-03-07 12:15:00,69.6,46.8,29.81,ESE,112,4.0,4.9,44,0.00,,---,0.00,VWS V13.01,2013-03-07 17:15:00,
2013-03-07 12:25:00,69.6,46.8,29.80,ENE,68,5.8,5.8,44,0.00,,---,0.00,VWS V13.01,2013-03-07 17:25:00,
2013-03-07 12:35:00,70.0,47.1,29.80,NE,45,6.3,7.6,44,0.00,,---,0.00,VWS V13.01,2013-03-07 17:35:00,
2013-03-07 12:45:00,70.3,46.8,29.79,East,90,5.6,5.6,43,0.00,,---,0.00,VWS V13.01,2013-03-07 17:45:00,
2013-03-07 12:50:00,70.3,46.8,29.79,NNE,22,4.0,5.6,43,0.00,,---,0.00,VWS V13.01,2013-03-07 17:50:00,
2013-03-07 13:00:00,70.3,46.8,29.79,ENE,68,7.4,7.4,43,0.00,,---,0.00,VWS V13.01,2013-03-07 18:00:00,
2013-03-07 13:10:00,70.3,46.2,29.79,East,90,5.4,7.2,42,0.00,,---,0.00,VWS V13.01,2013-03-07 18:10:00,
2013-03-07 13:20:00,70.7,46.5,29.78,NE,45,9.8,9.8,42,0.00,,---,0.00,VWS V13.01,2013-03-07 18:20:00,
2013-03-07 13:30:00,70.9,46.0,29.78,SSE,158,4.5,9.0,41,0.00,,---,0.00,VWS V13.01,2013-03-07 18:30:00,
2013-03-07 13:40:00,71.2,46.4,29.77,NE,45,3.1,7.2,41,0.00,,---,0.00,VWS V13.01,2013-03-07 18:40:00,
2013-03-07 13:50:00,71.2,46.4,29.77,SE,135,7.4,7.4,41,0.00,,---,0.00,VWS V13.01,2013-03-07 18:50:00,
2013-03-07 14:00:00,71.2,46.4,29.76,WSW,248,7.4,7.4,41,0.00,,---,0.00,VWS V13.01,2013-03-07 19:00:00,
2013-03-07 14:05:00,71.2,46.4,29.76,NE,45,4.0,7.4,41,0.00,,---,0.00,VWS V13.01,2013-03-07 19:05:00,
2013-03-07 14:10:00,71.2,46.4,29.76,WSW,248,7.4,7.4,41,0.00,,---,0.00,VWS V13.01,2013-03-07 19:10:00,
2013-03-07 14:20:00,71.2,45.7,29.76,ENE,68,0.9,2.9,40,0.00,,---,0.00,VWS V13.01,2013-03-07 19:20:00,
2013-03-07 14:25:00,71.4,46.5,29.76,WSW,248,2.9,7.6,41,0.00,,---,0.00,VWS V13.01,2013-03-07 19:25:00,
2013-03-07 14:35:00,71.4,46.5,29.76,ENE,68,7.2,8.1,41,0.00,,---,0.00,VWS V13.01,2013-03-07 19:35:00,
2013-03-07 14:45:00,71.4,46.5,29.76,WSW,248,4.9,7.6,41,0.00,,---,0.00,VWS V13.01,2013-03-07 19:45:00,
2013-03-07 14:50:00,71.4,46.5,29.76,WSW,248,4.9,4.9,41,0.00,,---,0.00,VWS V13.01,2013-03-07 19:50:00,
2013-03-07 14:55:00,71.4,46.5,29.75,WSW,248,0.0,6.7,41,0.00,,---,0.00,VWS V13.01,2013-03-07 19:55:00,
2013-03-07 15:05:00,71.4,45.9,29.76,WSW,248,1.1,6.3,40,0.00,,---,0.00,VWS V13.01,2013-03-07 20:05:00,
2013-03-07 15:15:00,71.2,45.7,29.75,WSW,248,2.7,5.1,40,0.00,,---,0.00,VWS V13.01,2013-03-07 20:15:00,
2013-03-07 15:25:00,71.4,45.9,29.75,WSW,248,6.0,6.0,40,0.00,,---,0.00,VWS V13.01,2013-03-07 20:25:00,
2013-03-07 15:35:00,71.2,45.0,29.75,WSW,248,2.2,6.5,39,0.00,,---,0.00,VWS V13.01,2013-03-07 20:35:00,
2013-03-07 15:40:00,71.2,45.0,29.75,WSW,248,0.7,3.4,39,0.00,,---,0.00,VWS V13.01,2013-03-07 20:40:00,
2013-03-07 15:50:00,71.2,45.0,29.75,WSW,248,6.3,7.8,39,0.00,,---,0.00,VWS V13.01,2013-03-07 20:50:00,
2013-03-07 16:00:00,70.9,45.4,29.76,WSW,248,7.8,7.8,40,0.00,,---,0.00,VWS V13.01,2013-03-07 21:00:00,
2013-03-07 16:05:00,70.9,45.4,29.75,WSW,248,4.0,7.8,40,0.00,,---,0.00,VWS V13.01,2013-03-07 21:05:00,
2013-03-07 16:10:00,70.9,45.4,29.76,WSW,248,4.0,4.0,40,0.00,,---,0.00,VWS V13.01,2013-03-07 21:10:00,
2013-03-07 16:20:00,70.5,45.1,29.75,WSW,248,2.9,2.9,40,0.00,,---,0.00,VWS V13.01,2013-03-07 21:20:00,
2013-03-07 16:30:00,70.7,45.9,29.76,WSW,248,1.6,4.5,41,0.00,,---,0.00,VWS V13.01,2013-03-07 21:30:00,
2013-03-07 16:40:00,70.3,46.2,29.76,WSW,248,4.7,5.6,42,0.00,,---,0.00,VWS V13.01,2013-03-07 21:40:00,
2013-03-07 16:45:00,70.2,46.0,29.76,WSW,248,4.7,6.9,42,0.00,,---,0.00,VWS V13.01,2013-03-07 21:45:00,
2013-03-07 16:55:00,69.6,46.2,29.76,WSW,248,7.4,7.4,43,0.00,,---,0.00,VWS V13.01,2013-03-07 21:55:00,
2013-03-07 17:00:00,69.6,46.2,29.76,WSW,248,7.4,7.4,43,0.00,,---,0.00,VWS V13.01,2013-03-07 22:00:00,
2013-03-07 17:10:00,69.6,47.4,29.77,WSW,248,0.0,6.5,45,0.00,,---,0.00,VWS V13.01,2013-03-07 22:10:00,
2013-03-07 17:20:00,69.4,47.8,29.77,WSW,248,1.1,4.5,46,0.00,,---,0.00,VWS V13.01,2013-03-07 22:20:00,
2013-03-07 17:25:00,69.3,48.2,29.77,WNW,292,3.1,5.4,47,0.00,,---,0.00,VWS V13.01,2013-03-07 22:25:00,
2013-03-07 17:35:00,69.1,48.6,29.77,WSW,248,3.6,3.6,48,0.00,,---,0.00,VWS V13.01,2013-03-07 22:35:00,
2013-03-07 17:40:00,69.1,48.6,29.77,ENE,68,6.7,6.7,48,0.00,,---,0.00,VWS V13.01,2013-03-07 22:40:00,
2013-03-07 17:50:00,68.7,48.3,29.77,East,90,2.7,4.9,48,0.00,,---,0.00,VWS V13.01,2013-03-07 22:50:00,
2013-03-07 17:55:00,68.4,48.5,29.78,NE,45,6.3,6.3,49,0.00,,---,0.00,VWS V13.01,2013-03-07 22:55:00,
2013-03-07 18:05:00,67.8,48.5,29.78,NE,45,1.6,1.6,50,0.00,,---,0.00,VWS V13.01,2013-03-07 23:05:00,
2013-03-07 18:10:00,67.3,49.1,29.78,NE,45,23.3,23.3,52,0.00,,---,0.00,VWS V13.01,2013-03-07 23:10:00,
2013-03-07 18:20:00,66.9,49.2,29.78,NNE,22,4.9,4.9,53,0.00,,---,0.00,VWS V13.01,2013-03-07 23:20:00,
2013-03-07 18:30:00,66.4,49.7,29.78,NE,45,1.1,20.8,55,0.00,,---,0.00,VWS V13.01,2013-03-07 23:30:00,
2013-03-07 18:40:00,66.0,49.9,29.79,ENE,68,11.0,11.0,56,0.00,,---,0.00,VWS V13.01,2013-03-07 23:40:00,
2013-03-07 18:50:00,65.8,51.1,29.79,NNE,22,20.1,20.1,59,0.00,,---,0.00,VWS V13.01,2013-03-07 23:50:00,
2013-03-07 19:00:00,65.5,50.8,29.80,NE,45,19.2,19.2,59,0.00,,---,0.00,VWS V13.01,2013-03-08 00:00:00,
2013-03-07 19:10:00,65.3,51.1,29.79,North,0,2.5,4.5,60,0.00,,---,0.00,VWS V13.01,2013-03-08 00:10:00,
2013-03-07 19:15:00,65.1,50.9,29.80,NNE,22,0.7,2.5,60,0.00,,---,0.00,VWS V13.01,2013-03-08 00:15:00,
2013-03-07 19:25:00,64.8,51.0,29.80,North,0,17.7,17.7,61,0.00,,---,0.00,VWS V13.01,2013-03-08 00:25:00,
2013-03-07 19:35:00,64.6,51.3,29.80,NNE,22,0.2,2.2,62,0.00,,---,0.00,VWS V13.01,2013-03-08 00:35:00,
2013-03-07 19:45:00,64.4,50.7,29.80,NNE,22,1.1,19.0,61,0.00,,---,0.00,VWS V13.01,2013-03-08 00:45:00,
2013-03-07 19:55:00,64.2,50.9,29.80,NNE,22,19.5,19.5,62,0.00,,---,0.00,VWS V13.01,2013-03-08 00:55:00,
2013-03-07 20:05:00,63.7,50.9,29.80,North,0,6.7,21.5,63,0.00,,---,0.00,VWS V13.01,2013-03-08 01:05:00,
2013-03-07 20:15:00,63.7,50.9,29.80,NNW,338,13.6,20.8,63,0.00,,---,0.00,VWS V13.01,2013-03-08 01:15:00,
2013-03-07 20:25:00,63.3,51.0,29.80,NNW,338,1.1,13.2,64,0.00,,---,0.00,VWS V13.01,2013-03-08 01:25:00,
2013-03-07 20:35:00,63.1,50.8,29.80,NNW,338,14.5,16.1,64,0.00,,---,0.00,VWS V13.01,2013-03-08 01:35:00,
2013-03-07 20:45:00,63.1,50.8,29.81,NNW,338,11.0,12.3,64,0.00,,---,0.00,VWS V13.01,2013-03-08 01:45:00,
2013-03-07 20:50:00,63.1,51.2,29.81,NNW,338,18.1,18.1,65,0.00,,---,0.00,VWS V13.01,2013-03-08 01:50:00,
2013-03-07 21:00:00,63.0,51.0,29.81,NNW,338,0.0,15.9,65,0.00,,---,0.00,VWS V13.01,2013-03-08 02:00:00,
2013-03-07 21:10:00,62.8,51.3,29.82,NNW,338,13.9,13.9,66,0.00,,---,0.00,VWS V13.01,2013-03-08 02:10:00,
2013-03-07 21:20:00,62.6,51.1,29.82,NNW,338,6.5,17.7,66,0.00,,---,0.00,VWS V13.01,2013-03-08 02:20:00,
2013-03-07 21:30:00,62.4,50.9,29.82,NW,315,0.0,0.0,66,0.00,,---,0.00,VWS V13.01,2013-03-08 02:30:00,
2013-03-07 21:40:00,62.2,51.2,29.83,NW,315,12.3,12.3,67,0.00,,---,0.00,VWS V13.01,2013-03-08 02:40:00,
2013-03-07 21:45:00,62.1,51.0,29.82,NW,315,0.0,12.3,67,0.00,,---,0.00,VWS V13.01,2013-03-08 02:45:00,
2013-03-07 21:55:00,61.7,51.0,29.82,NNW,338,0.0,12.5,68,0.00,,---,0.00,VWS V13.01,2013-03-08 02:55:00,
2013-03-07 22:05:00,61.5,50.5,29.82,NNW,338,0.0,0.7,67,0.00,,---,0.00,VWS V13.01,2013-03-08 03:05:00,
2013-03-07 22:10:00,61.3,50.7,29.83,NNW,338,1.8,2.9,68,0.00,,---,0.00,VWS V13.01,2013-03-08 03:10:00,
2013-03-07 22:20:00,61.2,50.5,29.83,NNW,338,1.6,12.8,68,0.00,,---,0.00,VWS V13.01,2013-03-08 03:20:00,
2013-03-07 22:25:00,61.0,50.8,29.83,NW,315,0.0,17.9,69,0.00,,---,0.00,VWS V13.01,2013-03-08 03:25:00,
2013-03-07 22:35:00,61.0,50.8,29.83,NW,315,15.7,15.9,69,0.00,,---,0.00,VWS V13.01,2013-03-08 03:35:00,
2013-03-07 22:45:00,60.8,50.6,29.83,NNW,338,0.0,13.4,69,0.00,,---,0.00,VWS V13.01,2013-03-08 03:45:00,
2013-03-07 22:55:00,60.4,50.6,29.82,North,0,0.4,0.4,70,0.00,,---,0.00,VWS V13.01,2013-03-08 03:55:00,
2013-03-07 23:05:00,59.9,50.1,29.82,North,0,10.1,10.1,70,0.00,,---,0.00,VWS V13.01,2013-03-08 04:05:00,
2013-03-07 23:15:00,59.9,50.1,29.82,North,0,0.0,0.0,70,0.00,,---,0.00,VWS V13.01,2013-03-08 04:15:00,
2013-03-07 23:25:00,59.5,50.1,29.82,North,0,2.2,7.8,71,0.00,,---,0.00,VWS V13.01,2013-03-08 04:25:00,
2013-03-07 23:35:00,59.5,50.1,29.82,North,0,4.0,4.0,71,0.00,,---,0.00,VWS V13.01,2013-03-08 04:35:00,
2013-03-07 23:40:00,58.8,49.8,29.82,NNW,338,1.1,4.0,72,0.00,,---,0.00,VWS V13.01,2013-03-08 04:40:00,
2013-03-07 23:45:00,58.8,49.8,29.82,NNW,338,1.1,1.1,72,0.00,,---,0.00,VWS V13.01,2013-03-08 04:45:00,
2013-03-07 23:55:00,59.2,50.2,29.81,NNW,338,0.0,0.0,72,0.00,,---,0.00,VWS V13.01,2013-03-08 04:55:00,